Regional Weather Roundup
Issued by NWS Boston, MA

Current Version | Previous Version | Text Only | Print | Product List | Glossary On
Versions: 1 2 3 4 5 6 7 8 9 10 11 12 13 14 15 16 17 18 19 20 21 22 23 24 25 26 27 28
000
ASUS41 KBOX 240710
RWRBOX

REGIONAL WEATHER ROUNDUP
NATIONAL WEATHER SERVICE TAUNTON MA
300 AM EDT FRI MAR 24 2017

NOTE:  "FAIR" INDICATES FEW OR NO CLOUDS BELOW 12,000 FEET WITH NO
SIGNIFICANT WEATHER AND/OR OBSTRUCTIONS TO VISIBILITY.

MAZALL-240800-
EASTERN MASSACHUSETTS

CITY           SKY/WX    TMP DP  RH WIND       PRES   REMARKS
BOSTON         CLEAR     31   7  36 CALM      30.52F
BEVERLY        CLEAR     25   9  50 CALM      30.50F
LAWRENCE       CLEAR     25   8  48 CALM      30.51F
BEDFORD        CLEAR     24  10  55 CALM      30.50S
BLUE HILL        N/A     27   3  35 W7        30.47S WCI  19
NORWOOD        CLEAR     20  16  84 E3        30.52S
MARSHFIELD     CLEAR     23   9  54 W5        30.53R WCI  17
PLYMOUTH       CLEAR     22  10  60 CALM      30.52F
TAUNTON        CLEAR     20  14  77 CALM      30.51F
NEW BEDFORD    CLEAR     21  12  68 CALM      30.52F
$$

MAZALL-240800-
CAPE COD AND THE ISLANDS

CITY           SKY/WX    TMP DP  RH WIND       PRES   REMARKS
FALMOUTH       CLEAR     21   7  53 MISG      30.52F
HYANNIS        CLEAR     29   5  36 CALM      30.50F
CHATHAM        CLEAR     26  11  52 NW3       30.52F
PROVINCETOWN   CLEAR     33  16  49 VRB6      30.52F WCI  28
NANTUCKET      CLEAR     31  14  49 NW6       30.52F WCI  25
MARTHAS VNYRD  CLEAR     18   7  62 CALM      30.51F
$$

MAZALL-240800-
CENTRAL AND WESTERN MASSACHUSETTS

CITY           SKY/WX    TMP DP  RH WIND       PRES   REMARKS
WORCESTER      CLOUDY    26   4  38 W6        30.45F WCI  19
FITCHBURG      MOCLDY    27  15  61 CALM      30.48F
ORANGE         CLOUDY    24  15  68 CALM      30.48S
SPRINGFIELD    CLOUDY    26  10  51 CALM      30.51R
WESTFIELD      CLOUDY    25  13  60 CALM      30.51R
NORTH ADAMS    CLOUDY    25  11  55 E5        30.47S WCI  19
PITTSFIELD     CLOUDY    21  11  65 N5        30.42S WCI  15
$$

RIZALL-240800-
RHODE ISLAND

CITY           SKY/WX    TMP DP  RH WIND       PRES   REMARKS
PROVIDENCE     CLEAR     25  11  55 CALM      30.53S
NEWPORT        CLEAR     24  15  68 CALM      30.51F
BLOCK ISLAND   CLEAR     29  15  56 SW6       30.54S WCI  23
SMITHFIELD     MOCLDY    25  11  55 CALM      30.50F
WESTERLY       CLEAR     22  15  75 CALM      30.55R
$$

CTZALL-240800-
CONNECTICUT

CITY           SKY/WX    TMP DP  RH WIND       PRES   REMARKS
BRADLEY INTL   CLOUDY    25  15  66 W3        30.52R
HARTFORD       PTCLDY    27  14  58 CALM      30.54R
BRIDGEPORT     CLOUDY    31  20  63 CALM      30.53R
DANBURY        PTCLDY    25  15  66 CALM      30.51S
GROTON         CLEAR     24  15  68 NE5       30.53S WCI  18
NEW HAVEN      PTCLDY    26  18  71 CALM      30.53R
CHESTER        FAIR      30  19  64 W3        30.52R
MERIDEN        CLOUDY    26  14  60 CALM      30.53R
WILLIMANTIC    CLOUDY    24  15  68 CALM      30.53R
OXFORD         CLOUDY    28   9  43 CALM      30.49S
$$

MEZ002-015-021-024-NHZ003-005-008-011-012-014-VTZ005-008-240800-
NORTHERN NEW ENGLAND

CITY           SKY/WX    TMP DP  RH WIND       PRES   REMARKS
PORTLAND ME    MOCLDY    23   7  50 SE5       30.48F WCI  17
BANGOR ME      CLOUDY    14   6  70 CALM      30.45F
CONCORD NH     CLOUDY    26   8  46 CALM      30.48S
MANCHESTER NH  NOT AVBL
NASHUA NH      NOT AVBL
PORTSMOUTH NH  MOCLDY    25   9  50 S3        30.48F
JAFFREY NH     NOT AVBL
KEENE NH       CLOUDY    24  13  62 CALM      30.47F
BURLINGTON VT  CLOUDY    30   5  34 S8        30.39F WCI  22
MT. WASHINGTON PTCLDY    14 -22  18 W20         N/A  WCI  -3
$$

NYZ052-076-240800-
EASTERN NEW YORK

CITY           SKY/WX    TMP DP  RH WIND       PRES   REMARKS
ALBANY         CLOUDY    29  10  45 S6        30.47S WCI  23
NEW YORK CITY  PTCLDY    40  18  41 SW7       30.52S
$$

ANZALL-240800-
MARINE OBSERVATIONS

STATION/POSITION TIME  TEMP    WIND        PRES    VSBY  WAVE
                       AIR SEA DIR/SP/G                  HT/PER
                 (UTC) (F)     (DEG/KT/KT) (MB)    (MI)  (FT/S)
BOSTON BUOY      0550   35 40  290/ 10/ 10 1033.8          2/ 4
BUZZARDS BAY     0600   34     330/  7/  7 1034.6F
NANTUCKET SOUND  0650      38              1033.4F         1/ 3
MASS BAY-STELLWA 0604   34 38  290/  8/ 10 1032.8F         3/ 4
ISLE OF SHOALS   0600   31     350/  5/  6 1033.3F
S OF BLOCK IS    0655      40                N/A           2/ 4
$$

......................KEY.........................
  SKY/WX - SKY CONDITION/PRESENT WEATHER
  TMP    - TEMPERATURE IN FAHRENHEIT
  DWPT   - DEWPOINT IN FAHRENHEIT
  RH     - RELATIVE HUMIDITY IN PERCENT
  WIND   - DIRECTION AND SPEED IN MPH
  PRES   - MEAN SEA LEVEL PRESSURE IN INCHES OF HG
  WCI    - WIND CHILL INDEX
  VSB    - VISIBILITY IN MILES
  HX     - HEAT INDEX
  TC     - TEMPERATURE IN CELSIUS
  VRB    - VARIABLE WIND DIRECTION
  N/A    - NOT AVAILABLE




USA.gov is the U.S. government's official web portal to all federal, state and local government web resources and services.